Time,TemperatureF,DewpointF,PressureIn,WindDirection,WindDirectionDegrees,WindSpeedMPH,WindSpeedGustMPH,Humidity,HourlyPrecipIn,Conditions,Clouds,dailyrainin,SolarRadiationWatts/m^2,SoftwareType,DateUTC
2013-06-07 00:02:00,55.0,49.0,-100.00,NNW,342,5.0,6.0,82,-99.99,,,-99.99,-0.100000,,2013-06-07 06:02:00,
2013-06-07 00:12:00,54.0,49.0,-100.00,North,359,5.0,5.0,83,-99.99,,,-99.99,-0.100000,,2013-06-07 06:12:00,
2013-06-07 00:21:00,53.0,49.0,-100.00,North,356,5.0,7.0,84,-99.99,,,-99.99,-0.100000,,2013-06-07 06:21:00,
2013-06-07 00:32:00,53.0,49.0,-100.00,NNW,347,4.0,5.0,83,-99.99,,,-99.99,-0.100000,,2013-06-07 06:32:00,
2013-06-07 00:41:00,53.0,48.0,-100.00,NNW,347,5.0,6.0,82,-99.99,,,-99.99,-0.100000,,2013-06-07 06:41:00,
2013-06-07 00:52:00,53.0,48.0,-100.00,North,349,6.0,6.0,82,-99.99,,,-99.99,-0.100000,,2013-06-07 06:52:00,
2013-06-07 01:02:00,52.0,47.0,-100.00,North,3,8.0,11.0,82,-99.99,,,-99.99,-0.200000,,2013-06-07 07:02:00,
2013-06-07 01:11:00,52.0,47.0,-100.00,NNW,340,6.0,8.0,81,-99.99,,,-99.99,-0.100000,,2013-06-07 07:11:00,
2013-06-07 01:22:00,53.0,47.0,-100.00,NNW,334,9.0,10.0,80,-99.99,,,-99.99,-0.100000,,2013-06-07 07:22:00,
2013-06-07 01:32:00,52.0,47.0,-100.00,NNW,331,8.0,9.0,80,-99.99,,,-99.99,0.000000,,2013-06-07 07:32:00,
2013-06-07 01:42:00,51.0,47.0,-100.00,NW,320,6.0,7.0,84,-99.99,,,-99.99,-0.100000,,2013-06-07 07:42:00,
2013-06-07 01:52:00,52.0,47.0,-100.00,NNW,333,5.0,7.0,83,-99.99,,,-99.99,-0.100000,,2013-06-07 07:52:00,
2013-06-07 02:02:00,51.0,47.0,-100.00,NNW,327,6.0,8.0,83,-99.99,,,-99.99,-0.100000,,2013-06-07 08:02:00,
2013-06-07 02:11:00,51.0,47.0,-100.00,NW,326,6.0,7.0,84,-99.99,,,-99.99,-0.100000,,2013-06-07 08:11:00,
2013-06-07 02:22:00,51.0,46.0,-100.00,NNW,329,6.0,7.0,85,-99.99,,,-99.99,-0.100000,,2013-06-07 08:22:00,
2013-06-07 02:32:00,51.0,46.0,-100.00,NNW,330,6.0,8.0,84,-99.99,,,-99.99,-0.100000,,2013-06-07 08:32:00,
2013-06-07 02:42:00,51.0,46.0,-100.00,NNW,336,6.0,7.0,84,-99.99,,,-99.99,-0.100000,,2013-06-07 08:42:00,
2013-06-07 02:51:00,51.0,46.0,-100.00,NNW,343,6.0,7.0,83,-99.99,,,-99.99,-0.100000,,2013-06-07 08:51:00,
2013-06-07 03:02:00,50.0,45.0,-100.00,NNW,336,6.0,6.0,84,-99.99,,,-99.99,-0.100000,,2013-06-07 09:02:00,
2013-06-07 03:11:00,49.0,46.0,-100.00,NNW,342,6.0,8.0,86,-99.99,,,-99.99,-0.100000,,2013-06-07 09:11:00,
2013-06-07 03:22:00,49.0,46.0,-100.00,NE,34,5.0,6.0,86,-99.99,,,-99.99,-0.100000,,2013-06-07 09:22:00,
2013-06-07 03:32:00,50.0,46.0,-100.00,NE,34,5.0,6.0,85,-99.99,,,-99.99,-0.100000,,2013-06-07 09:32:00,
2013-06-07 03:43:00,49.0,46.0,-100.00,NNE,31,7.0,8.0,87,-99.99,,,-99.99,-0.100000,,2013-06-07 09:43:00,
2013-06-07 03:53:00,49.0,46.0,-100.00,NNE,33,6.0,7.0,89,-99.99,,,-99.99,-0.100000,,2013-06-07 09:53:00,
2013-06-07 04:02:00,49.0,46.0,-100.00,NNE,26,5.0,7.0,91,-99.99,,,-99.99,0.000000,,2013-06-07 10:02:00,
2013-06-07 04:12:00,49.0,47.0,-100.00,North,7,4.0,5.0,91,-99.99,,,-99.99,-0.100000,,2013-06-07 10:12:00,
2013-06-07 04:22:00,49.0,46.0,-100.00,North,10,4.0,5.0,90,-99.99,,,-99.99,-0.100000,,2013-06-07 10:22:00,
2013-06-07 04:32:00,49.0,46.0,-100.00,NNW,347,4.0,5.0,90,-99.99,,,-99.99,-0.100000,,2013-06-07 10:32:00,
2013-06-07 04:42:00,48.0,45.0,-100.00,NW,311,5.0,6.0,89,-99.99,,,-99.99,-0.100000,,2013-06-07 10:42:00,
2013-06-07 04:52:00,47.0,45.0,-100.00,NW,313,4.0,4.0,90,-99.99,,,-99.99,-0.100000,,2013-06-07 10:52:00,
2013-06-07 05:02:00,48.0,45.0,-100.00,NW,318,4.0,4.0,88,-99.99,,,-99.99,-0.100000,,2013-06-07 11:02:00,
2013-06-07 05:11:00,48.0,44.0,-100.00,NNW,335,3.0,4.0,86,-99.99,,,-99.99,-0.100000,,2013-06-07 11:11:00,
2013-06-07 05:22:00,47.0,44.0,-100.00,NW,321,4.0,6.0,89,-99.99,,,-99.99,-0.100000,,2013-06-07 11:22:00,
2013-06-07 05:32:00,47.0,44.0,-100.00,NW,310,4.0,5.0,88,-99.99,,,-99.99,-0.100000,,2013-06-07 11:32:00,
2013-06-07 05:42:00,47.0,43.0,-100.00,NW,316,4.0,5.0,87,-99.99,,,-99.99,-0.100000,,2013-06-07 11:42:00,
2013-06-07 05:52:00,47.0,43.0,-100.00,NW,311,4.0,4.0,88,-99.99,,,-99.99,0.200000,,2013-06-07 11:52:00,
2013-06-07 06:02:00,47.0,43.0,-100.00,NW,308,4.0,4.0,87,-99.99,,,-99.99,1.700000,,2013-06-07 12:02:00,
2013-06-07 06:11:00,47.0,43.0,-100.00,WNW,292,5.0,6.0,87,-99.99,,,-99.99,4.000000,,2013-06-07 12:11:00,
2013-06-07 06:22:00,46.0,43.0,-100.00,WNW,297,6.0,6.0,88,-99.99,,,-99.99,10.900000,,2013-06-07 12:22:00,
2013-06-07 06:32:00,46.0,43.0,-100.00,NW,318,5.0,5.0,87,-99.99,,,-99.99,27.900000,,2013-06-07 12:32:00,
2013-06-07 06:41:00,47.0,43.0,-100.00,NNW,327,2.0,3.0,87,-99.99,,,-99.99,54.700001,,2013-06-07 12:41:00,
2013-06-07 06:52:00,48.0,43.0,-100.00,NW,315,4.0,4.0,85,-99.99,,,-99.99,55.200001,,2013-06-07 12:52:00,
2013-06-07 07:02:00,48.0,44.0,-100.00,NW,306,4.0,5.0,86,-99.99,,,-99.99,103.500000,,2013-06-07 13:02:00,
2013-06-07 07:11:00,49.0,45.0,-100.00,WNW,303,4.0,5.0,86,-99.99,,,-99.99,122.000000,,2013-06-07 13:11:00,
2013-06-07 07:22:00,49.0,46.0,-100.00,WNW,285,4.0,5.0,86,-99.99,,,-99.99,143.199997,,2013-06-07 13:22:00,
2013-06-07 07:32:00,50.0,45.0,-100.00,WNW,295,3.0,4.0,83,-99.99,,,-99.99,131.300003,,2013-06-07 13:32:00,
2013-06-07 07:41:00,51.0,46.0,-100.00,WNW,303,2.0,2.0,83,-99.99,,,-99.99,200.399994,,2013-06-07 13:41:00,
2013-06-07 07:52:00,52.0,46.0,-100.00,WNW,292,3.0,4.0,81,-99.99,,,-99.99,214.399994,,2013-06-07 13:52:00,
2013-06-07 08:02:00,53.0,46.0,-100.00,NNW,334,2.0,3.0,79,-99.99,,,-99.99,255.699997,,2013-06-07 14:02:00,
2013-06-07 08:11:00,54.0,47.0,-100.00,NNW,327,2.0,3.0,77,-99.99,,,-99.99,229.199997,,2013-06-07 14:11:00,
2013-06-07 08:21:00,55.0,48.0,-100.00,WNW,291,3.0,3.0,77,-99.99,,,-99.99,182.500000,,2013-06-07 14:21:00,
2013-06-07 08:32:00,56.0,48.0,-100.00,NW,322,2.0,3.0,75,-99.99,,,-99.99,339.899994,,2013-06-07 14:32:00,
2013-06-07 08:42:00,57.0,48.0,-100.00,NNW,327,2.0,3.0,71,-99.99,,,-99.99,444.600006,,2013-06-07 14:42:00,
2013-06-07 08:52:00,58.0,47.0,-100.00,NE,36,3.0,3.0,65,-99.99,,,-99.99,438.500000,,2013-06-07 14:52:00,
2013-06-07 09:02:00,59.0,49.0,-100.00,NNE,24,3.0,4.0,67,-99.99,,,-99.99,267.899994,,2013-06-07 15:02:00,
2013-06-07 09:11:00,58.0,49.0,-100.00,North,351,2.0,2.0,69,-99.99,,,-99.99,391.500000,,2013-06-07 15:11:00,
2013-06-07 09:21:00,60.0,49.0,-100.00,ESE,111,2.0,2.0,67,-99.99,,,-99.99,498.700012,,2013-06-07 15:21:00,
2013-06-07 09:33:00,61.0,47.0,-100.00,ESE,119,3.0,4.0,59,-99.99,,,-99.99,572.000000,,2013-06-07 15:33:00,
2013-06-07 09:43:00,62.0,48.0,-100.00,SE,146,3.0,5.0,60,-99.99,,,-99.99,601.700012,,2013-06-07 15:43:00,
2013-06-07 09:53:00,63.0,49.0,-100.00,SSE,157,3.0,5.0,60,-99.99,,,-99.99,617.299988,,2013-06-07 15:53:00,
2013-06-07 10:03:00,63.0,49.0,-100.00,SE,136,3.0,5.0,58,-99.99,,,-99.99,629.599976,,2013-06-07 16:03:00,
2013-06-07 10:12:00,65.0,50.0,-100.00,SSE,150,4.0,6.0,57,-99.99,,,-99.99,554.500000,,2013-06-07 16:12:00,
2013-06-07 10:22:00,65.0,51.0,-100.00,SSE,156,6.0,8.0,60,-99.99,,,-99.99,699.299988,,2013-06-07 16:22:00,
2013-06-07 10:32:00,65.0,52.0,-100.00,South,175,7.0,9.0,62,-99.99,,,-99.99,753.599976,,2013-06-07 16:32:00,
2013-06-07 10:42:00,65.0,53.0,-100.00,SSE,167,7.0,9.0,62,-99.99,,,-99.99,768.500000,,2013-06-07 16:42:00,
2013-06-07 10:52:00,66.0,53.0,-100.00,SSW,193,7.0,11.0,62,-99.99,,,-99.99,796.299988,,2013-06-07 16:52:00,
2013-06-07 11:02:00,67.0,53.0,-100.00,South,180,6.0,12.0,60,-99.99,,,-99.99,808.000000,,2013-06-07 17:02:00,
2013-06-07 11:11:00,69.0,54.0,-100.00,South,169,7.0,10.0,59,-99.99,,,-99.99,855.000000,,2013-06-07 17:11:00,
2013-06-07 11:22:00,71.0,51.0,-100.00,SSW,194,11.0,13.0,49,-99.99,,,-99.99,804.000000,,2013-06-07 17:22:00,
2013-06-07 11:32:00,72.0,53.0,-100.00,South,179,10.0,13.0,50,-99.99,,,-99.99,898.000000,,2013-06-07 17:32:00,
2013-06-07 11:42:00,73.0,51.0,-100.00,SSW,205,12.0,20.0,45,-99.99,,,-99.99,908.000000,,2013-06-07 17:42:00,
2013-06-07 11:52:00,74.0,50.0,-100.00,SW,221,13.0,16.0,41,-99.99,,,-99.99,917.000000,,2013-06-07 17:52:00,
2013-06-07 12:02:00,76.0,47.0,-100.00,SSW,206,15.0,20.0,36,-99.99,,,-99.99,961.000000,,2013-06-07 18:02:00,
2013-06-07 12:12:00,76.0,47.0,-100.00,SSW,208,14.0,20.0,35,-99.99,,,-99.99,856.000000,,2013-06-07 18:12:00,
2013-06-07 12:22:00,77.0,45.0,-100.00,SSW,204,15.0,21.0,33,-99.99,,,-99.99,802.000000,,2013-06-07 18:22:00,
2013-06-07 12:33:00,77.0,47.0,-100.00,SSW,206,14.0,17.0,35,-99.99,,,-99.99,981.000000,,2013-06-07 18:33:00,
2013-06-07 12:42:00,78.0,47.0,-100.00,SSW,202,15.0,18.0,33,-99.99,,,-99.99,859.000000,,2013-06-07 18:42:00,
2013-06-07 12:52:00,79.0,47.0,-100.00,SSW,194,14.0,22.0,33,-99.99,,,-99.99,998.000000,,2013-06-07 18:52:00,
2013-06-07 13:03:00,80.0,48.0,-100.00,SSW,211,14.0,19.0,33,-99.99,,,-99.99,1056.000000,,2013-06-07 19:03:00,
2013-06-07 13:11:00,80.0,47.0,-100.00,SW,215,16.0,21.0,31,-99.99,,,-99.99,1023.000000,,2013-06-07 19:11:00,
2013-06-07 13:21:00,81.0,48.0,-100.00,SW,217,17.0,24.0,32,-99.99,,,-99.99,715.099976,,2013-06-07 19:21:00,
2013-06-07 13:32:00,80.0,48.0,-100.00,SW,230,13.0,21.0,33,-99.99,,,-99.99,916.000000,,2013-06-07 19:32:00,
2013-06-07 13:42:00,80.0,46.0,-100.00,SW,225,14.0,21.0,30,-99.99,,,-99.99,1027.000000,,2013-06-07 19:42:00,
2013-06-07 14:02:00,81.0,48.0,-100.00,West,264,16.0,22.0,31,-99.99,,,-99.99,1000.000000,,2013-06-07 20:02:00,
2013-06-07 14:22:00,82.0,45.0,-100.00,SW,219,13.0,18.0,27,-99.99,,,-99.99,1015.000000,,2013-06-07 20:22:00,
2013-06-07 14:34:00,81.0,47.0,-100.00,SW,236,15.0,21.0,30,-99.99,,,-99.99,987.000000,,2013-06-07 20:34:00,
2013-06-07 14:42:00,82.0,47.0,-100.00,SW,230,14.0,21.0,29,-99.99,,,-99.99,990.000000,,2013-06-07 20:42:00,
2013-06-07 14:52:00,83.0,47.0,-100.00,WSW,245,16.0,22.0,29,-99.99,,,-99.99,1000.000000,,2013-06-07 20:52:00,
2013-06-07 15:11:00,84.0,46.0,-100.00,WSW,255,18.0,24.0,26,-99.99,,,-99.99,985.000000,,2013-06-07 21:11:00,
2013-06-07 15:34:00,84.0,44.0,-100.00,WSW,248,19.0,29.0,25,-99.99,,,-99.99,826.000000,,2013-06-07 21:34:00,
2013-06-07 15:43:00,84.0,43.0,-100.00,WSW,245,22.0,39.0,24,-99.99,,,-99.99,779.799988,,2013-06-07 21:43:00,
2013-06-07 15:53:00,83.0,45.0,-100.00,WSW,245,17.0,29.0,27,-99.99,,,-99.99,593.599976,,2013-06-07 21:53:00,
2013-06-07 16:04:00,83.0,44.0,-100.00,WSW,243,19.0,30.0,25,-99.99,,,-99.99,664.099976,,2013-06-07 22:04:00,
2013-06-07 16:12:00,83.0,44.0,-100.00,WSW,246,18.0,29.0,25,-99.99,,,-99.99,555.200012,,2013-06-07 22:12:00,
2013-06-07 16:22:00,82.0,43.0,-100.00,SW,236,18.0,26.0,25,-99.99,,,-99.99,713.700012,,2013-06-07 22:22:00,
2013-06-07 16:33:00,83.0,46.0,-100.00,WSW,252,22.0,33.0,27,-99.99,,,-99.99,865.000000,,2013-06-07 22:33:00,
2013-06-07 16:52:00,83.0,45.0,-100.00,SW,226,19.0,25.0,26,-99.99,,,-99.99,756.200012,,2013-06-07 22:52:00,
2013-06-07 17:03:00,83.0,44.0,-100.00,SW,230,18.0,28.0,25,-99.99,,,-99.99,671.099976,,2013-06-07 23:03:00,
2013-06-07 17:12:00,83.0,45.0,-100.00,WSW,244,16.0,26.0,26,-99.99,,,-99.99,823.000000,,2013-06-07 23:12:00,
2013-06-07 17:21:00,84.0,43.0,-100.00,WSW,243,17.0,25.0,24,-99.99,,,-99.99,724.299988,,2013-06-07 23:21:00,
2013-06-07 17:33:00,84.0,42.0,-100.00,SW,236,19.0,30.0,23,-99.99,,,-99.99,664.700012,,2013-06-07 23:33:00,
2013-06-07 17:42:00,83.0,41.0,-100.00,WSW,245,20.0,32.0,22,-99.99,,,-99.99,634.700012,,2013-06-07 23:42:00,
2013-06-07 17:52:00,84.0,41.0,-100.00,WSW,245,18.0,25.0,22,-99.99,,,-99.99,602.200012,,2013-06-07 23:52:00,
2013-06-07 18:03:00,83.0,40.0,-100.00,WSW,244,22.0,30.0,21,-99.99,,,-99.99,571.200012,,2013-06-08 00:03:00,
2013-06-07 18:11:00,83.0,40.0,-100.00,WSW,246,22.0,30.0,22,-99.99,,,-99.99,541.099976,,2013-06-08 00:11:00,
2013-06-07 18:32:00,83.0,39.0,-100.00,WSW,241,21.0,33.0,21,-99.99,,,-99.99,476.500000,,2013-06-08 00:32:00,
2013-06-07 18:42:00,82.0,40.0,-100.00,WSW,240,19.0,30.0,22,-99.99,,,-99.99,446.100006,,2013-06-08 00:42:00,
2013-06-07 18:52:00,82.0,40.0,-100.00,WSW,241,20.0,30.0,22,-99.99,,,-99.99,413.799988,,2013-06-08 00:52:00,
2013-06-07 19:02:00,81.0,40.0,-100.00,WSW,247,22.0,33.0,23,-99.99,,,-99.99,380.399994,,2013-06-08 01:02:00,
2013-06-07 19:11:00,81.0,42.0,-100.00,WSW,245,17.0,26.0,24,-99.99,,,-99.99,348.799988,,2013-06-08 01:11:00,
2013-06-07 19:33:00,81.0,40.0,-100.00,WSW,242,19.0,28.0,23,-99.99,,,-99.99,295.200012,,2013-06-08 01:33:00,
2013-06-07 19:42:00,81.0,39.0,-100.00,WSW,238,18.0,25.0,22,-99.99,,,-99.99,263.700012,,2013-06-08 01:42:00,
2013-06-07 19:52:00,80.0,40.0,-100.00,SW,235,15.0,21.0,24,-99.99,,,-99.99,231.000000,,2013-06-08 01:52:00,
2013-06-07 20:03:00,79.0,41.0,-100.00,WSW,240,16.0,24.0,25,-99.99,,,-99.99,198.300003,,2013-06-08 02:03:00,
2013-06-07 20:11:00,78.0,41.0,-100.00,WSW,242,15.0,20.0,26,-99.99,,,-99.99,108.900002,,2013-06-08 02:11:00,
2013-06-07 20:21:00,78.0,40.0,-100.00,WSW,247,18.0,23.0,25,-99.99,,,-99.99,140.600006,,2013-06-08 02:21:00,
2013-06-07 20:33:00,78.0,39.0,-100.00,WSW,249,20.0,28.0,24,-99.99,,,-99.99,111.300003,,2013-06-08 02:33:00,
2013-06-07 20:52:00,77.0,39.0,-100.00,WSW,246,18.0,28.0,25,-99.99,,,-99.99,51.299999,,2013-06-08 02:52:00,
2013-06-07 21:03:00,77.0,39.0,-100.00,WSW,247,17.0,25.0,25,-99.99,,,-99.99,29.600000,,2013-06-08 03:03:00,
2013-06-07 21:11:00,76.0,39.0,-100.00,WSW,250,17.0,26.0,26,-99.99,,,-99.99,15.000000,,2013-06-08 03:11:00,
2013-06-07 21:22:00,75.0,39.0,-100.00,WSW,253,17.0,25.0,27,-99.99,,,-99.99,6.500000,,2013-06-08 03:22:00,
2013-06-07 21:33:00,75.0,38.0,-100.00,WSW,254,17.0,26.0,26,-99.99,,,-99.99,2.700000,,2013-06-08 03:33:00,
2013-06-07 21:43:00,75.0,37.0,-100.00,WSW,257,20.0,28.0,25,-99.99,,,-99.99,0.900000,,2013-06-08 03:43:00,
2013-06-07 21:53:00,75.0,37.0,-100.00,WSW,250,18.0,24.0,25,-99.99,,,-99.99,0.100000,,2013-06-08 03:53:00,
2013-06-07 22:03:00,75.0,38.0,-100.00,WSW,247,20.0,26.0,26,-99.99,,,-99.99,-0.100000,,2013-06-08 04:03:00,
2013-06-07 22:12:00,74.0,39.0,-100.00,WSW,241,17.0,25.0,28,-99.99,,,-99.99,-0.100000,,2013-06-08 04:12:00,
2013-06-07 22:22:00,73.0,39.0,-100.00,WSW,246,17.0,24.0,29,-99.99,,,-99.99,-0.100000,,2013-06-08 04:22:00,
2013-06-07 22:33:00,72.0,39.0,-100.00,WSW,243,16.0,21.0,29,-99.99,,,-99.99,-0.100000,,2013-06-08 04:33:00,
2013-06-07 22:42:00,72.0,39.0,-100.00,WSW,243,17.0,23.0,29,-99.99,,,-99.99,-0.100000,,2013-06-08 04:42:00,
2013-06-07 22:53:00,72.0,39.0,-100.00,WSW,241,15.0,22.0,29,-99.99,,,-99.99,-0.100000,,2013-06-08 04:53:00,
2013-06-07 23:02:00,72.0,39.0,-100.00,WSW,242,15.0,20.0,30,-99.99,,,-99.99,-0.100000,,2013-06-08 05:02:00,
2013-06-07 23:11:00,71.0,39.0,-100.00,WSW,243,16.0,22.0,30,-99.99,,,-99.99,0.000000,,2013-06-08 05:11:00,
2013-06-07 23:22:00,71.0,39.0,-100.00,WSW,247,16.0,22.0,31,-99.99,,,-99.99,-0.100000,,2013-06-08 05:22:00,
2013-06-07 23:32:00,70.0,39.0,-100.00,WSW,253,15.0,20.0,32,-99.99,,,-99.99,-0.100000,,2013-06-08 05:32:00,
2013-06-07 23:41:00,69.0,39.0,-100.00,WSW,252,15.0,20.0,33,-99.99,,,-99.99,-0.100000,,2013-06-08 05:41:00,
2013-06-07 23:52:00,70.0,38.0,-100.00,WSW,253,15.0,22.0,32,-99.99,,,-99.99,-0.100000,,2013-06-08 05:52:00,